Flag for U.S.A. Weather past 2 weeks in Anchorage, Alaska, U.S.A.

Now
47 °F

Partly sunny.


Feels Like: 43 °F
Forecast: 47 / 56 °F
Wind: 7 mph from Southwest

Location: Lake Hood Seaplane

Current Time: May 26, 2015 at 7:55:20 AM

Latest Report: May 26, 2015 at 6:53 AM


Visibility: 10 mi

Pressure: 30.15 "Hg

Humidity: 83%

Dew point: 42 °F

Location of AnchorageLocation

Historic Weather in Anchorage — Graph

°F

Anchorage temperature yesterday

Maximum temperature yesterday: 59 °F (at 2:53 PM)
Minimum temperature yesterday: 50 °F (at 4:53 AM)
Average temperature yesterday: 54 °F

Past Weeks' High & Low Weather Summary

 TemperatureHumidityPressure
High65 °F (May 22, 3:53 PM)94% (May 25, 6:02 AM)30.25 "Hg (May 25, 6:02 AM)
Low41 °F (May 17, 4:53 AM)34% (May 12, 3:53 PM)29.78 "Hg (May 15, 4:53 PM)
Average52 °F62%30.07 "Hg
* Reported May 11 6:53 AM — May 26 6:53 AM, Anchorage, Weather by CustomWeather, © 2015

Note: Actual official high and low records may vary slightly from our data, if they occured in-between our weather recording intervals... More about our weather records

Advertising

Anchorage weather history for previous 24 hours

 ConditionsComfort  
Time TempWeatherWind HumidityBarometerVisibility
6:53 AM
Tue, May 26
47 °FPartly sunny.7 mph83%30.15 "Hg10 mi
5:53 AM47 °FPassing clouds.3 mph83%30.14 "Hg10 mi
4:53 AM48 °FOvercast.5 mph80%30.13 "Hg10 mi
3:53 AM48 °FPassing clouds.5 mph80%30.13 "Hg10 mi
2:53 AM50 °FOvercast.No wind77%30.14 "Hg10 mi
1:53 AM49 °FPassing clouds.3 mph77%30.14 "Hg10 mi
12:53 AM51 °FOvercast.5 mph69%30.13 "Hg10 mi
11:53 PM
Mon, May 25
54 °FOvercast.6 mph55%30.13 "Hg10 mi
10:53 PM55 °FOvercast.7 mph55%30.12 "Hg10 mi
9:53 PM52 °FOvercast.5 mph77%30.11 "Hg10 mi
8:53 PM57 °FLight rain. More clouds than sun.5 mph58%30.11 "Hg10 mi
7:53 PM59 °FPartly sunny.7 mph48%30.11 "Hg10 mi
6:53 PM59 °FScattered clouds.8 mph48%30.11 "Hg10 mi
5:53 PM59 °FScattered clouds.8 mph48%30.12 "Hg10 mi
4:53 PM59 °FSunny.13 mph56%30.12 "Hg10 mi
3:53 PM59 °FSunny.7 mph56%30.11 "Hg10 mi
2:53 PM59 °FPartly sunny.No wind56%30.13 "Hg10 mi
1:53 PM56 °FPartly sunny.5 mph62%30.14 "Hg10 mi
12:53 PM54 °FLight rain. Mostly cloudy.3 mph77%30.14 "Hg9 mi
11:53 AM53 °FMostly cloudy.6 mph74%30.14 "Hg10 mi
10:53 AM53 °FMostly cloudy.5 mph74%30.13 "Hg10 mi
9:53 AM52 °FLight rain. Mostly cloudy.7 mph77%30.12 "Hg10 mi
8:53 AM52 °FOvercast.10 mph80%30.11 "Hg10 mi
8:01 AM52 °FOvercast.3 mph82%30.10 "Hg10 mi
Weather by CustomWeather, © 2015

See weather overviewHow to use our weather pages